Terug naar catalogus

ZQ-2E R/B

ActiefVLEO
NORAD 69537·ROCKET BODY·🇨🇳 China

Gelanceerd Jun 9, 2026 vanaf Jiuquan Satellite Launch Center

Loading…

Volgende Passages (komende 24 uur)

TLE

VersSource: Space-Track

Epoch: Sep 14, 2026, 09:29 UTC

1 69537U 26128C   26257.39581939  .00051235  00000-0  34752-3 0  9998
2 69537  54.5252 239.5578 0045422 232.0660 127.6268 15.73056175 15211

Volg ZQ-2E R/B in realtime met AllMySat

Download on the App Store